Time,TemperatureF,DewpointF,PressureIn,WindDirection,WindDirectionDegrees,WindSpeedMPH,WindSpeedGustMPH,Humidity,HourlyPrecipIn,Conditions,Clouds,dailyrainin,SoftwareType,DateUTC
2013-07-20 00:00:00,76.5,68.7,30.03,South,189,0.0,0.0,77,0.00,,---,0.00,VWS V14.01,2013-07-20 04:00:00,
2013-07-20 00:01:00,76.5,68.7,30.03,South,189,0.0,0.0,77,0.00,,---,0.00,VWS V14.01,2013-07-20 04:01:00,
2013-07-20 00:02:00,76.5,68.7,30.03,South,189,0.0,0.0,77,0.00,,---,0.00,VWS V14.01,2013-07-20 04:02:00,
2013-07-20 00:07:00,76.5,68.7,30.03,South,189,0.0,0.0,77,0.00,,---,0.00,VWS V14.01,2013-07-20 04:07:00,
2013-07-20 00:12:00,76.5,68.7,30.03,South,189,0.0,0.0,77,0.00,,---,0.00,VWS V14.01,2013-07-20 04:12:00,
2013-07-20 00:17:00,76.5,69.1,30.03,South,189,0.0,0.0,78,0.00,,---,0.00,VWS V14.01,2013-07-20 04:17:00,
2013-07-20 00:22:00,76.5,69.1,30.03,South,189,0.0,0.0,78,0.00,,---,0.00,VWS V14.01,2013-07-20 04:22:00,
2013-07-20 00:26:00,76.5,69.1,30.03,South,189,0.0,0.0,78,0.00,,---,0.00,VWS V14.01,2013-07-20 04:26:00,
2013-07-20 00:31:00,76.5,69.1,30.03,South,189,0.0,0.0,78,0.00,,---,0.00,VWS V14.01,2013-07-20 04:31:00,
2013-07-20 00:36:00,76.5,69.1,30.03,South,189,0.0,0.0,78,0.00,,---,0.00,VWS V14.01,2013-07-20 04:36:00,
2013-07-20 00:41:00,76.5,69.1,30.03,South,189,0.0,0.0,78,0.00,,---,0.00,VWS V14.01,2013-07-20 04:41:00,
2013-07-20 00:46:00,76.5,69.1,30.03,South,189,0.0,0.0,78,0.00,,---,0.00,VWS V14.01,2013-07-20 04:46:00,
2013-07-20 00:51:00,76.5,69.1,30.03,South,189,0.0,0.0,78,0.00,,---,0.00,VWS V14.01,2013-07-20 04:51:00,
2013-07-20 00:56:00,76.5,69.1,30.03,South,189,0.0,0.0,78,0.00,,---,0.00,VWS V14.01,2013-07-20 04:56:00,
2013-07-20 01:01:00,76.5,69.1,30.03,South,189,0.0,0.0,78,0.00,,---,0.00,VWS V14.01,2013-07-20 05:01:00,
2013-07-20 01:06:00,76.5,69.1,30.03,South,189,0.0,0.0,78,0.00,,---,0.00,VWS V14.01,2013-07-20 05:06:00,
2013-07-20 01:11:00,76.3,68.9,30.03,South,189,0.0,0.0,78,0.00,,---,0.00,VWS V14.01,2013-07-20 05:11:00,
2013-07-20 01:16:00,76.3,68.9,30.03,South,189,0.0,0.0,78,0.00,,---,0.00,VWS V14.01,2013-07-20 05:16:00,
2013-07-20 01:21:00,76.1,69.1,30.03,South,189,0.0,0.0,79,0.00,,---,0.00,VWS V14.01,2013-07-20 05:21:00,
2013-07-20 01:26:00,76.1,69.1,30.03,South,189,0.0,0.0,79,0.00,,---,0.00,VWS V14.01,2013-07-20 05:26:00,
2013-07-20 01:31:00,76.1,69.1,30.03,South,189,0.0,0.0,79,0.00,,---,0.00,VWS V14.01,2013-07-20 05:31:00,
2013-07-20 01:36:00,76.1,69.1,30.03,South,189,0.0,0.0,79,0.00,,---,0.00,VWS V14.01,2013-07-20 05:36:00,
2013-07-20 01:41:00,76.1,69.1,30.03,South,189,0.0,0.0,79,0.00,,---,0.00,VWS V14.01,2013-07-20 05:41:00,
2013-07-20 01:46:00,76.3,68.9,30.03,South,189,0.0,0.0,78,0.00,,---,0.00,VWS V14.01,2013-07-20 05:46:00,
2013-07-20 01:51:00,76.3,68.9,30.03,South,189,0.0,0.0,78,0.00,,---,0.00,VWS V14.01,2013-07-20 05:51:00,
2013-07-20 01:56:00,76.3,68.9,30.03,South,189,0.0,0.0,78,0.00,,---,0.00,VWS V14.01,2013-07-20 05:56:00,
2013-07-20 02:01:00,76.3,68.9,30.03,South,189,0.0,0.0,78,0.00,,---,0.00,VWS V14.01,2013-07-20 06:01:00,
2013-07-20 02:06:00,76.3,68.9,30.03,South,189,0.0,0.0,78,0.00,,---,0.00,VWS V14.01,2013-07-20 06:06:00,
2013-07-20 02:11:00,76.3,68.6,30.03,South,189,0.0,0.0,77,0.00,,---,0.00,VWS V14.01,2013-07-20 06:11:00,
2013-07-20 02:16:00,76.3,68.6,30.03,South,189,0.0,0.0,77,0.00,,---,0.00,VWS V14.01,2013-07-20 06:16:00,
2013-07-20 02:21:00,76.3,68.6,30.03,South,189,0.0,0.0,77,0.00,,---,0.00,VWS V14.01,2013-07-20 06:21:00,
2013-07-20 02:26:00,76.1,68.4,30.03,South,173,0.0,0.0,77,0.00,,---,0.00,VWS V14.01,2013-07-20 06:26:00,
2013-07-20 02:31:00,76.1,68.0,30.03,SW,218,0.0,0.0,76,0.00,,---,0.00,VWS V14.01,2013-07-20 06:31:00,
2013-07-20 02:36:00,76.1,68.0,30.03,SSW,195,0.0,0.0,76,0.00,,---,0.00,VWS V14.01,2013-07-20 06:36:00,
2013-07-20 02:41:00,75.9,67.8,30.03,West,279,0.0,0.0,76,0.00,,---,0.00,VWS V14.01,2013-07-20 06:41:00,
2013-07-20 02:46:00,75.9,67.4,30.03,West,279,0.0,0.0,75,0.00,,---,0.00,VWS V14.01,2013-07-20 06:46:00,
2013-07-20 02:51:00,75.9,67.4,30.03,West,279,0.0,0.0,75,0.00,,---,0.00,VWS V14.01,2013-07-20 06:51:00,
2013-07-20 02:56:00,75.7,67.3,30.03,West,279,0.0,0.0,75,0.00,,---,0.00,VWS V14.01,2013-07-20 06:56:00,
2013-07-20 03:01:00,75.7,67.3,30.03,West,279,0.0,0.0,75,0.00,,---,0.00,VWS V14.01,2013-07-20 07:01:00,
2013-07-20 03:06:00,75.7,67.3,30.03,West,279,0.0,0.0,75,0.00,,---,0.00,VWS V14.01,2013-07-20 07:06:00,
2013-07-20 03:11:00,75.6,67.1,30.03,NNW,333,0.0,0.0,75,0.00,,---,0.00,VWS V14.01,2013-07-20 07:11:00,
2013-07-20 03:16:00,75.6,67.1,30.03,South,189,0.0,0.0,75,0.00,,---,0.00,VWS V14.01,2013-07-20 07:16:00,
2013-07-20 03:21:00,75.4,66.9,30.03,South,189,0.0,0.0,75,0.00,,---,0.00,VWS V14.01,2013-07-20 07:21:00,
2013-07-20 03:26:00,75.4,66.9,30.03,South,189,0.0,0.0,75,0.00,,---,0.00,VWS V14.01,2013-07-20 07:26:00,
2013-07-20 03:31:00,75.2,66.7,30.03,South,189,0.0,0.0,75,0.00,,---,0.00,VWS V14.01,2013-07-20 07:31:00,
2013-07-20 03:36:00,75.2,66.7,30.03,South,189,0.0,0.0,75,0.00,,---,0.00,VWS V14.01,2013-07-20 07:36:00,
2013-07-20 03:41:00,75.0,66.9,30.00,South,189,0.0,0.0,76,0.00,,---,0.00,VWS V14.01,2013-07-20 07:41:00,
2013-07-20 03:46:00,75.0,66.9,30.00,South,189,0.0,0.0,76,0.00,,---,0.00,VWS V14.01,2013-07-20 07:46:00,
2013-07-20 03:51:00,74.8,66.8,30.00,South,189,0.0,0.0,76,0.00,,---,0.00,VWS V14.01,2013-07-20 07:51:00,
2013-07-20 03:56:00,74.8,67.2,30.03,South,189,0.0,0.0,77,0.00,,---,0.00,VWS V14.01,2013-07-20 07:56:00,
2013-07-20 04:01:00,74.7,67.0,30.03,South,189,0.0,0.0,77,0.00,,---,0.00,VWS V14.01,2013-07-20 08:01:00,
2013-07-20 04:06:00,74.7,67.0,30.03,South,189,0.0,0.0,77,0.00,,---,0.00,VWS V14.01,2013-07-20 08:06:00,
2013-07-20 04:11:00,74.5,66.8,30.03,South,189,0.0,0.0,77,0.00,,---,0.00,VWS V14.01,2013-07-20 08:11:00,
2013-07-20 04:16:00,74.5,67.2,30.03,South,189,0.0,0.0,78,0.00,,---,0.00,VWS V14.01,2013-07-20 08:16:00,
2013-07-20 04:21:00,74.5,67.2,30.03,South,189,0.0,0.0,78,0.00,,---,0.00,VWS V14.01,2013-07-20 08:21:00,
2013-07-20 04:26:00,74.5,67.2,30.03,South,189,0.0,0.0,78,0.00,,---,0.00,VWS V14.01,2013-07-20 08:26:00,
2013-07-20 04:31:00,74.3,67.4,30.03,South,189,0.0,0.0,79,0.00,,---,0.00,VWS V14.01,2013-07-20 08:31:00,
2013-07-20 04:36:00,74.3,67.4,30.03,South,189,0.0,0.0,79,0.00,,---,0.00,VWS V14.01,2013-07-20 08:36:00,
2013-07-20 04:41:00,74.3,67.4,30.03,South,189,0.0,0.0,79,0.00,,---,0.00,VWS V14.01,2013-07-20 08:41:00,
2013-07-20 04:46:00,74.3,67.4,30.03,South,189,0.0,0.0,79,0.00,,---,0.00,VWS V14.01,2013-07-20 08:46:00,
2013-07-20 04:51:00,74.1,67.2,30.03,South,189,0.0,0.0,79,0.00,,---,0.00,VWS V14.01,2013-07-20 08:51:00,
2013-07-20 04:56:00,74.1,67.6,30.03,South,189,0.0,0.0,80,0.00,,---,0.00,VWS V14.01,2013-07-20 08:56:00,
2013-07-20 05:01:00,74.1,67.6,30.03,South,189,0.0,0.0,80,0.00,,---,0.00,VWS V14.01,2013-07-20 09:01:00,
2013-07-20 05:06:00,73.9,67.4,30.03,South,189,0.0,0.0,80,0.00,,---,0.00,VWS V14.01,2013-07-20 09:06:00,
2013-07-20 05:11:00,73.9,67.4,30.03,South,189,0.0,0.0,80,0.00,,---,0.00,VWS V14.01,2013-07-20 09:11:00,
2013-07-20 05:16:00,73.9,67.4,30.03,South,189,0.0,0.0,80,0.00,,---,0.00,VWS V14.01,2013-07-20 09:16:00,
2013-07-20 05:21:00,73.8,67.6,30.03,South,189,0.0,0.0,81,0.00,,---,0.00,VWS V14.01,2013-07-20 09:21:00,
2013-07-20 05:26:00,73.8,67.6,30.03,South,189,0.0,0.0,81,0.00,,---,0.00,VWS V14.01,2013-07-20 09:26:00,
2013-07-20 05:31:00,73.6,67.4,30.03,South,189,0.0,0.0,81,0.00,,---,0.00,VWS V14.01,2013-07-20 09:31:00,
2013-07-20 05:36:00,73.6,67.4,30.03,South,189,0.0,0.0,81,0.00,,---,0.00,VWS V14.01,2013-07-20 09:36:00,
2013-07-20 05:41:00,73.6,67.8,30.00,South,189,0.0,0.0,82,0.00,,---,0.00,VWS V14.01,2013-07-20 09:41:00,
2013-07-20 05:46:00,73.4,67.6,30.00,South,189,0.0,0.0,82,0.00,,---,0.00,VWS V14.01,2013-07-20 09:46:00,
2013-07-20 05:51:00,73.4,67.6,30.00,South,189,0.0,0.0,82,0.00,,---,0.00,VWS V14.01,2013-07-20 09:51:00,
2013-07-20 05:56:00,73.4,67.6,30.03,South,189,0.0,0.0,82,0.00,,---,0.00,VWS V14.01,2013-07-20 09:56:00,
2013-07-20 06:01:00,73.2,67.8,30.03,South,189,0.0,0.0,83,0.00,,---,0.00,VWS V14.01,2013-07-20 10:01:00,
2013-07-20 06:06:00,73.2,67.8,30.03,South,189,0.0,0.0,83,0.00,,---,0.00,VWS V14.01,2013-07-20 10:06:00,
2013-07-20 06:11:00,73.2,68.1,30.03,South,189,0.0,0.0,84,0.00,,---,0.00,VWS V14.01,2013-07-20 10:11:00,
2013-07-20 06:16:00,73.0,67.9,30.03,South,189,0.0,0.0,84,0.00,,---,0.00,VWS V14.01,2013-07-20 10:16:00,
2013-07-20 06:21:00,73.0,67.9,30.03,South,189,0.0,0.0,84,0.00,,---,0.00,VWS V14.01,2013-07-20 10:21:00,
2013-07-20 06:26:00,73.0,67.9,30.03,South,189,0.0,0.0,84,0.00,,---,0.00,VWS V14.01,2013-07-20 10:26:00,
2013-07-20 06:31:00,73.0,68.3,30.03,South,189,0.0,0.0,85,0.00,,---,0.00,VWS V14.01,2013-07-20 10:31:00,
2013-07-20 06:36:00,73.0,68.3,30.03,South,189,0.0,0.0,85,0.00,,---,0.00,VWS V14.01,2013-07-20 10:36:00,
2013-07-20 06:41:00,73.0,68.3,30.03,South,189,0.0,0.0,85,0.00,,---,0.00,VWS V14.01,2013-07-20 10:41:00,
2013-07-20 06:46:00,73.0,68.6,30.03,South,189,0.0,0.0,86,0.00,,---,0.00,VWS V14.01,2013-07-20 10:46:00,
2013-07-20 06:51:00,73.0,68.6,30.03,South,189,0.0,0.0,86,0.00,,---,0.00,VWS V14.01,2013-07-20 10:51:00,
2013-07-20 06:56:00,73.2,68.8,30.03,South,189,0.0,0.0,86,0.00,,---,0.00,VWS V14.01,2013-07-20 10:56:00,
2013-07-20 07:01:00,73.2,68.8,30.03,South,189,0.0,0.0,86,0.00,,---,0.00,VWS V14.01,2013-07-20 11:01:00,
2013-07-20 07:06:00,73.2,69.1,30.03,South,189,0.0,0.0,87,0.00,,---,0.00,VWS V14.01,2013-07-20 11:06:00,
2013-07-20 07:11:00,73.2,69.1,30.03,SSW,199,0.0,0.0,87,0.00,,---,0.00,VWS V14.01,2013-07-20 11:11:00,
2013-07-20 07:16:00,73.4,69.3,30.03,SSW,199,0.0,0.0,87,0.00,,---,0.00,VWS V14.01,2013-07-20 11:16:00,
2013-07-20 07:21:00,73.4,69.3,30.03,SSW,199,0.0,0.0,87,0.00,,---,0.00,VWS V14.01,2013-07-20 11:21:00,
2013-07-20 07:26:00,73.6,69.5,30.03,SSW,199,0.0,0.0,87,0.00,,---,0.00,VWS V14.01,2013-07-20 11:26:00,
2013-07-20 07:31:00,73.6,69.5,30.03,West,272,0.0,0.0,87,0.00,,---,0.00,VWS V14.01,2013-07-20 11:31:00,
2013-07-20 07:36:00,73.8,69.7,30.03,West,272,0.0,0.0,87,0.00,,---,0.00,VWS V14.01,2013-07-20 11:36:00,
2013-07-20 07:41:00,73.8,69.7,30.03,WNW,292,0.0,0.0,87,0.00,,---,0.00,VWS V14.01,2013-07-20 11:41:00,
2013-07-20 07:46:00,73.8,70.0,30.03,North,353,0.0,0.0,88,0.00,,---,0.00,VWS V14.01,2013-07-20 11:46:00,
2013-07-20 07:51:00,73.9,70.2,30.03,North,353,0.0,0.0,88,0.00,,---,0.00,VWS V14.01,2013-07-20 11:51:00,
2013-07-20 07:56:00,73.9,70.2,30.03,North,353,0.0,0.0,88,0.00,,---,0.00,VWS V14.01,2013-07-20 11:56:00,
2013-07-20 08:01:00,74.1,70.3,30.03,North,353,0.0,0.0,88,0.00,,---,0.00,VWS V14.01,2013-07-20 12:01:00,
2013-07-20 08:06:00,74.1,70.3,30.03,NNW,345,0.0,0.0,88,0.00,,---,0.00,VWS V14.01,2013-07-20 12:06:00,
2013-07-20 08:11:00,74.1,70.3,30.03,NNW,345,0.0,0.0,88,0.00,,---,0.00,VWS V14.01,2013-07-20 12:11:00,
2013-07-20 08:16:00,74.3,70.5,30.03,NNW,345,0.0,0.0,88,0.00,,---,0.00,VWS V14.01,2013-07-20 12:16:00,
2013-07-20 08:21:00,74.3,70.5,30.03,South,191,0.0,0.0,88,0.00,,---,0.00,VWS V14.01,2013-07-20 12:21:00,
2013-07-20 08:26:00,74.5,70.7,30.03,NNW,328,0.0,0.0,88,0.00,,---,0.00,VWS V14.01,2013-07-20 12:26:00,
2013-07-20 08:31:00,74.5,70.7,30.03,West,266,0.0,0.0,88,0.00,,---,0.00,VWS V14.01,2013-07-20 12:31:00,
2013-07-20 08:36:00,74.7,70.9,30.03,West,266,0.0,0.0,88,0.00,,---,0.00,VWS V14.01,2013-07-20 12:36:00,
2013-07-20 08:41:00,74.7,70.9,30.03,West,266,0.0,0.0,88,0.00,,---,0.00,VWS V14.01,2013-07-20 12:41:00,
2013-07-20 08:46:00,74.8,71.1,30.03,North,11,0.0,0.0,88,0.00,,---,0.00,VWS V14.01,2013-07-20 12:46:00,
2013-07-20 08:51:00,75.0,71.2,30.03,North,11,0.0,0.0,88,0.00,,---,0.00,VWS V14.01,2013-07-20 12:51:00,
2013-07-20 08:56:00,75.2,71.1,30.03,North,353,0.0,0.0,87,0.00,,---,0.00,VWS V14.01,2013-07-20 12:56:00,
2013-07-20 09:01:00,75.4,71.2,30.03,NNW,332,0.0,0.0,87,0.00,,---,0.00,VWS V14.01,2013-07-20 13:01:00,
2013-07-20 09:06:00,75.6,71.4,30.03,NW,308,0.0,0.0,87,0.00,,---,0.00,VWS V14.01,2013-07-20 13:06:00,
2013-07-20 09:11:00,75.7,71.3,30.06,South,182,0.0,0.0,86,0.00,,---,0.00,VWS V14.01,2013-07-20 13:11:00,
2013-07-20 09:16:00,75.7,71.3,30.06,SW,215,0.0,0.0,86,0.00,,---,0.00,VWS V14.01,2013-07-20 13:16:00,
2013-07-20 09:21:00,75.9,71.1,30.06,SSW,210,0.0,2.2,85,0.00,,---,0.00,VWS V14.01,2013-07-20 13:21:00,
2013-07-20 09:26:00,76.1,71.3,30.06,WNW,297,0.0,0.0,85,0.00,,---,0.00,VWS V14.01,2013-07-20 13:26:00,
2013-07-20 09:31:00,76.3,71.1,30.06,SSW,205,0.0,0.0,84,0.00,,---,0.00,VWS V14.01,2013-07-20 13:31:00,
2013-07-20 09:36:00,76.3,71.1,30.06,NNW,340,2.7,3.1,84,0.00,,---,0.00,VWS V14.01,2013-07-20 13:36:00,
2013-07-20 09:41:00,76.5,70.9,30.06,NNW,340,0.0,0.0,83,0.00,,---,0.00,VWS V14.01,2013-07-20 13:41:00,
2013-07-20 09:46:00,76.6,71.1,30.06,NNW,340,0.0,0.0,83,0.00,,---,0.00,VWS V14.01,2013-07-20 13:46:00,
2013-07-20 09:51:00,76.6,70.7,30.06,NNW,340,0.0,0.0,82,0.00,,---,0.00,VWS V14.01,2013-07-20 13:51:00,
2013-07-20 09:56:00,76.6,70.7,30.06,NNW,340,0.0,0.0,82,0.00,,---,0.00,VWS V14.01,2013-07-20 13:56:00,
2013-07-20 10:01:00,76.6,70.4,30.06,SSW,195,0.0,0.0,81,0.00,,---,0.00,VWS V14.01,2013-07-20 14:01:00,
2013-07-20 10:06:00,76.8,70.6,30.06,NW,321,0.0,0.0,81,0.00,,---,0.00,VWS V14.01,2013-07-20 14:06:00,
2013-07-20 10:11:00,77.0,70.4,30.06,South,169,0.0,0.0,80,0.00,,---,0.00,VWS V14.01,2013-07-20 14:11:00,
2013-07-20 10:16:00,77.0,70.4,30.06,NNW,331,0.0,0.0,80,0.00,,---,0.00,VWS V14.01,2013-07-20 14:16:00,
2013-07-20 10:21:00,77.2,70.2,30.06,NNW,331,0.0,0.0,79,0.00,,---,0.00,VWS V14.01,2013-07-20 14:21:00,
2013-07-20 10:26:00,77.2,70.2,30.06,NNW,327,0.0,0.0,79,0.00,,---,0.00,VWS V14.01,2013-07-20 14:26:00,
2013-07-20 10:31:00,77.4,70.3,30.06,WSW,245,0.0,0.0,79,0.00,,---,0.00,VWS V14.01,2013-07-20 14:31:00,
2013-07-20 10:36:00,77.7,70.3,30.06,North,6,0.0,0.0,78,0.00,,---,0.00,VWS V14.01,2013-07-20 14:36:00,
2013-07-20 10:41:00,78.1,70.7,30.06,West,273,0.0,0.0,78,0.00,,---,0.00,VWS V14.01,2013-07-20 14:41:00,
2013-07-20 10:46:00,78.3,70.5,30.06,NNW,327,0.0,0.0,77,0.00,,---,0.00,VWS V14.01,2013-07-20 14:46:00,
2013-07-20 10:51:00,78.3,70.5,30.06,NW,321,2.2,3.1,77,0.00,,---,0.00,VWS V14.01,2013-07-20 14:51:00,
2013-07-20 10:56:00,78.3,70.1,30.06,NW,321,0.0,0.0,76,0.00,,---,0.00,VWS V14.01,2013-07-20 14:56:00,
2013-07-20 11:01:00,78.3,70.1,30.06,NW,321,0.0,0.0,76,0.00,,---,0.00,VWS V14.01,2013-07-20 15:01:00,
2013-07-20 11:06:00,78.4,70.2,30.06,NW,321,0.0,0.0,76,0.00,,---,0.00,VWS V14.01,2013-07-20 15:06:00,
2013-07-20 11:11:00,78.6,70.0,30.06,South,186,0.0,0.0,75,0.00,,---,0.00,VWS V14.01,2013-07-20 15:11:00,
2013-07-20 11:16:00,78.8,69.8,30.06,SSW,201,0.0,0.0,74,0.00,,---,0.00,VWS V14.01,2013-07-20 15:16:00,
2013-07-20 11:21:00,79.0,70.0,30.06,South,172,0.0,0.0,74,0.00,,---,0.00,VWS V14.01,2013-07-20 15:21:00,
2013-07-20 11:26:00,79.0,69.6,30.06,South,180,0.0,0.0,73,0.00,,---,0.00,VWS V14.01,2013-07-20 15:26:00,
2013-07-20 11:31:00,79.2,69.4,30.06,South,179,0.0,0.0,72,0.00,,---,0.00,VWS V14.01,2013-07-20 15:31:00,
2013-07-20 11:36:00,79.2,69.4,30.06,South,179,0.0,0.0,72,0.00,,---,0.00,VWS V14.01,2013-07-20 15:36:00,
2013-07-20 11:41:00,79.2,68.9,30.06,South,187,0.0,0.0,71,0.00,,---,0.00,VWS V14.01,2013-07-20 15:41:00,
2013-07-20 11:46:00,79.5,69.3,30.06,SW,221,0.0,0.0,71,0.00,,---,0.00,VWS V14.01,2013-07-20 15:46:00,
2013-07-20 11:51:00,79.7,69.1,30.06,South,187,0.0,0.0,70,0.00,,---,0.00,VWS V14.01,2013-07-20 15:51:00,
2013-07-20 11:56:00,79.9,69.2,30.06,SSW,194,0.0,0.0,70,0.00,,---,0.00,VWS V14.01,2013-07-20 15:56:00,
2013-07-20 12:01:00,80.1,69.0,30.06,SSW,202,0.0,0.0,69,0.00,,---,0.00,VWS V14.01,2013-07-20 16:01:00,
2013-07-20 12:06:00,80.2,69.2,30.06,SSW,192,0.0,0.0,69,0.00,,---,0.00,VWS V14.01,2013-07-20 16:06:00,
2013-07-20 12:11:00,80.4,68.9,30.06,SSW,196,0.0,0.0,68,0.00,,---,0.00,VWS V14.01,2013-07-20 16:11:00,
2013-07-20 12:16:00,80.6,68.6,30.03,NNW,341,0.0,0.0,67,0.00,,---,0.00,VWS V14.01,2013-07-20 16:16:00,
2013-07-20 12:21:00,80.8,68.8,30.03,North,0,0.0,0.0,67,0.00,,---,0.00,VWS V14.01,2013-07-20 16:21:00,
2013-07-20 12:26:00,81.1,69.2,30.03,NW,325,0.0,0.0,67,0.00,,---,0.00,VWS V14.01,2013-07-20 16:26:00,
2013-07-20 12:31:00,81.3,69.3,30.03,SE,131,0.0,0.0,67,0.00,,---,0.00,VWS V14.01,2013-07-20 16:31:00,
2013-07-20 12:36:00,81.5,69.1,30.03,SW,227,0.0,0.0,66,0.00,,---,0.00,VWS V14.01,2013-07-20 16:36:00,
2013-07-20 12:41:00,81.9,68.9,30.03,South,191,0.0,0.0,65,0.00,,---,0.00,VWS V14.01,2013-07-20 16:41:00,
2013-07-20 12:46:00,82.0,69.1,30.03,SSW,208,0.0,0.0,65,0.00,,---,0.00,VWS V14.01,2013-07-20 16:46:00,
2013-07-20 12:51:00,82.2,69.3,30.03,South,173,0.0,0.0,65,0.00,,---,0.00,VWS V14.01,2013-07-20 16:51:00,
2013-07-20 12:56:00,82.6,68.7,30.03,WSW,246,3.1,3.1,63,0.00,,---,0.00,VWS V14.01,2013-07-20 16:56:00,
2013-07-20 13:01:00,82.8,68.9,30.03,South,176,0.0,0.0,63,0.00,,---,0.00,VWS V14.01,2013-07-20 17:01:00,
2013-07-20 13:06:00,83.1,68.8,30.03,WSW,243,0.0,0.0,62,0.00,,---,0.00,VWS V14.01,2013-07-20 17:06:00,
2013-07-20 13:11:00,83.1,68.8,30.03,SW,219,0.0,0.0,62,0.00,,---,0.00,VWS V14.01,2013-07-20 17:11:00,
2013-07-20 13:16:00,83.3,68.9,30.03,SSW,204,0.0,0.0,62,0.00,,---,0.00,VWS V14.01,2013-07-20 17:16:00,
2013-07-20 13:21:00,83.3,68.9,30.03,WSW,238,2.7,2.7,62,0.00,,---,0.00,VWS V14.01,2013-07-20 17:21:00,
2013-07-20 13:26:00,83.3,68.5,30.03,South,171,2.7,2.7,61,0.00,,---,0.00,VWS V14.01,2013-07-20 17:26:00,
2013-07-20 13:31:00,83.1,67.8,30.03,WSW,242,0.0,0.0,60,0.00,,---,0.00,VWS V14.01,2013-07-20 17:31:00,
2013-07-20 13:36:00,82.9,67.6,30.03,SE,130,2.2,2.2,60,0.00,,---,0.00,VWS V14.01,2013-07-20 17:36:00,
2013-07-20 13:41:00,82.9,68.1,30.03,North,349,0.0,0.0,61,0.00,,---,0.00,VWS V14.01,2013-07-20 17:41:00,
2013-07-20 13:46:00,81.9,64.6,30.03,West,269,0.0,3.1,56,0.00,,---,0.00,VWS V14.01,2013-07-20 17:46:00,
2013-07-20 13:51:00,80.8,63.1,30.03,West,262,4.0,4.0,55,0.00,,---,0.00,VWS V14.01,2013-07-20 17:51:00,
2013-07-20 13:56:00,78.8,60.2,30.03,NE,44,0.0,0.0,53,0.00,,---,0.00,VWS V14.01,2013-07-20 17:56:00,
2013-07-20 14:01:00,77.5,59.6,30.03,West,278,0.0,0.0,54,0.00,,---,0.00,VWS V14.01,2013-07-20 18:01:00,
2013-07-20 14:06:00,76.6,59.8,30.03,North,353,2.2,2.7,56,0.00,,---,0.00,VWS V14.01,2013-07-20 18:06:00,
2013-07-20 14:11:00,75.4,59.1,30.03,West,274,0.0,0.0,57,0.00,,---,0.00,VWS V14.01,2013-07-20 18:11:00,
2013-07-20 14:16:00,74.1,59.4,30.03,NE,56,0.0,0.0,60,0.00,,---,0.00,VWS V14.01,2013-07-20 18:16:00,
2013-07-20 14:21:00,72.9,59.5,30.03,NNW,345,0.0,0.0,63,0.00,,---,0.00,VWS V14.01,2013-07-20 18:21:00,
2013-07-20 14:26:00,72.3,60.3,30.00,NNW,345,0.0,0.0,66,0.00,,---,0.00,VWS V14.01,2013-07-20 18:26:00,
2013-07-20 14:31:00,72.0,60.8,30.00,NNW,345,0.0,0.0,68,0.04,,---,0.04,VWS V14.01,2013-07-20 18:31:00,
2013-07-20 14:36:00,71.6,60.9,30.00,NNW,345,0.0,0.0,69,0.04,,---,0.04,VWS V14.01,2013-07-20 18:36:00,
2013-07-20 14:41:00,71.4,61.5,30.00,NNW,345,0.0,0.0,71,0.04,,---,0.04,VWS V14.01,2013-07-20 18:41:00,
2013-07-20 14:46:00,71.4,62.3,30.00,NNW,345,0.0,0.0,73,0.04,,---,0.04,VWS V14.01,2013-07-20 18:46:00,
2013-07-20 14:51:00,71.4,63.1,30.00,NNW,345,0.0,0.0,75,0.04,,---,0.04,VWS V14.01,2013-07-20 18:51:00,
2013-07-20 14:57:00,71.4,63.5,30.00,NNW,345,0.0,0.0,76,0.04,,---,0.04,VWS V14.01,2013-07-20 18:57:00,
2013-07-20 15:02:00,71.4,63.8,30.00,NNW,345,0.0,0.0,77,0.04,,---,0.04,VWS V14.01,2013-07-20 19:02:00,
2013-07-20 15:07:00,71.4,64.2,30.00,NNW,345,0.0,0.0,78,0.04,,---,0.04,VWS V14.01,2013-07-20 19:07:00,
2013-07-20 15:12:00,71.6,64.8,30.00,NNW,345,0.0,0.0,79,0.04,,---,0.04,VWS V14.01,2013-07-20 19:12:00,
2013-07-20 15:17:00,71.6,65.1,30.00,NNW,345,0.0,0.0,80,0.04,,---,0.04,VWS V14.01,2013-07-20 19:17:00,
2013-07-20 15:22:00,71.8,65.3,30.00,NNW,345,0.0,0.0,80,0.04,,---,0.04,VWS V14.01,2013-07-20 19:22:00,
2013-07-20 15:27:00,72.0,65.8,30.00,NNW,345,0.0,0.0,81,0.04,,---,0.04,VWS V14.01,2013-07-20 19:27:00,
2013-07-20 15:33:00,72.1,66.0,30.00,NNW,345,0.0,0.0,81,0.00,,---,0.04,VWS V14.01,2013-07-20 19:33:00,
2013-07-20 15:38:00,72.3,66.5,30.00,NNW,345,0.0,0.0,82,0.00,,---,0.04,VWS V14.01,2013-07-20 19:38:00,
2013-07-20 15:43:00,72.5,67.1,30.00,NNW,345,0.0,0.0,83,0.00,,---,0.04,VWS V14.01,2013-07-20 19:43:00,
2013-07-20 15:48:00,72.7,67.6,30.00,NNW,345,0.0,0.0,84,0.00,,---,0.04,VWS V14.01,2013-07-20 19:48:00,
2013-07-20 15:53:00,73.0,68.3,30.00,NNW,345,0.0,0.0,85,0.00,,---,0.04,VWS V14.01,2013-07-20 19:53:00,
2013-07-20 15:58:00,73.4,68.6,30.00,NNW,345,0.0,0.0,85,0.00,,---,0.04,VWS V14.01,2013-07-20 19:58:00,
2013-07-20 16:03:00,73.8,69.0,30.00,NNW,345,0.0,0.0,85,0.00,,---,0.04,VWS V14.01,2013-07-20 20:03:00,
2013-07-20 16:08:00,74.1,69.7,30.00,NNW,345,0.0,0.0,86,0.00,,---,0.04,VWS V14.01,2013-07-20 20:08:00,
2013-07-20 16:13:00,74.3,69.8,30.00,NNW,345,0.0,0.0,86,0.00,,---,0.04,VWS V14.01,2013-07-20 20:13:00,
2013-07-20 16:18:00,74.5,70.0,30.00,NNW,345,0.0,0.0,86,0.00,,---,0.04,VWS V14.01,2013-07-20 20:18:00,
2013-07-20 16:23:00,74.7,70.5,30.00,NNW,345,0.0,0.0,87,0.00,,---,0.04,VWS V14.01,2013-07-20 20:23:00,
2013-07-20 16:28:00,74.8,70.7,29.97,NNW,345,0.0,0.0,87,0.00,,---,0.04,VWS V14.01,2013-07-20 20:28:00,
2013-07-20 16:33:00,75.0,70.9,29.97,NNW,345,0.0,0.0,87,0.00,,---,0.04,VWS V14.01,2013-07-20 20:33:00,
2013-07-20 16:38:00,75.2,71.1,29.97,NNW,345,0.0,0.0,87,0.00,,---,0.04,VWS V14.01,2013-07-20 20:38:00,
2013-07-20 16:43:00,75.4,71.2,29.97,NNW,345,0.0,0.0,87,0.00,,---,0.04,VWS V14.01,2013-07-20 20:43:00,
2013-07-20 16:49:00,75.6,71.4,29.97,NNW,345,0.0,0.0,87,0.00,,---,0.04,VWS V14.01,2013-07-20 20:49:00,
2013-07-20 16:54:00,75.6,71.4,29.97,NNW,345,0.0,0.0,87,0.00,,---,0.04,VWS V14.01,2013-07-20 20:54:00,
2013-07-20 16:59:00,75.6,71.4,29.97,NNW,345,0.0,0.0,87,0.00,,---,0.04,VWS V14.01,2013-07-20 20:59:00,
2013-07-20 17:04:00,75.7,71.6,29.97,NNW,345,0.0,0.0,87,0.00,,---,0.04,VWS V14.01,2013-07-20 21:04:00,
2013-07-20 17:09:00,75.7,71.6,29.97,NNW,345,0.0,0.0,87,0.00,,---,0.04,VWS V14.01,2013-07-20 21:09:00,
2013-07-20 17:14:00,75.9,71.8,29.97,NNW,345,0.0,0.0,87,0.00,,---,0.04,VWS V14.01,2013-07-20 21:14:00,
2013-07-20 17:19:00,76.1,71.9,29.97,NNW,345,0.0,0.0,87,0.00,,---,0.04,VWS V14.01,2013-07-20 21:19:00,
2013-07-20 17:24:00,76.1,71.9,29.97,NNW,345,0.0,0.0,87,0.00,,---,0.04,VWS V14.01,2013-07-20 21:24:00,
2013-07-20 17:29:00,76.3,72.1,29.97,NNW,345,0.0,0.0,87,0.00,,---,0.04,VWS V14.01,2013-07-20 21:29:00,
2013-07-20 17:34:00,76.3,72.1,29.97,NNW,345,0.0,0.0,87,0.00,,---,0.04,VWS V14.01,2013-07-20 21:34:00,
2013-07-20 17:39:00,76.3,72.1,29.97,NNW,345,0.0,0.0,87,0.00,,---,0.04,VWS V14.01,2013-07-20 21:39:00,
2013-07-20 17:44:00,76.3,71.8,29.97,NNW,345,0.0,0.0,86,0.00,,---,0.04,VWS V14.01,2013-07-20 21:44:00,
2013-07-20 17:49:00,76.3,71.4,29.97,NNW,345,0.0,0.0,85,0.00,,---,0.04,VWS V14.01,2013-07-20 21:49:00,
2013-07-20 17:54:00,76.3,71.4,29.97,NNW,345,0.0,0.0,85,0.00,,---,0.04,VWS V14.01,2013-07-20 21:54:00,
2013-07-20 17:59:00,76.3,71.4,29.97,NNW,345,0.0,0.0,85,0.00,,---,0.04,VWS V14.01,2013-07-20 21:59:00,
2013-07-20 18:04:00,76.5,71.3,29.97,North,357,0.0,0.0,84,0.00,,---,0.04,VWS V14.01,2013-07-20 22:04:00,
2013-07-20 18:09:00,76.5,70.9,29.97,North,357,0.0,0.0,83,0.00,,---,0.04,VWS V14.01,2013-07-20 22:09:00,
2013-07-20 18:14:00,76.5,70.9,29.94,North,357,0.0,0.0,83,0.00,,---,0.04,VWS V14.01,2013-07-20 22:14:00,
2013-07-20 18:20:00,76.5,70.6,29.94,North,357,0.0,0.0,82,0.00,,---,0.04,VWS V14.01,2013-07-20 22:20:00,
2013-07-20 18:25:00,76.5,70.6,29.94,NNW,339,0.0,0.0,82,0.00,,---,0.04,VWS V14.01,2013-07-20 22:25:00,
2013-07-20 18:30:00,76.5,70.2,29.97,NNW,339,0.0,0.0,81,0.00,,---,0.04,VWS V14.01,2013-07-20 22:30:00,
2013-07-20 18:35:00,76.5,70.2,29.97,NNW,339,0.0,0.0,81,0.00,,---,0.04,VWS V14.01,2013-07-20 22:35:00,
2013-07-20 18:40:00,76.5,69.8,29.97,NNW,339,0.0,0.0,80,0.00,,---,0.04,VWS V14.01,2013-07-20 22:40:00,
2013-07-20 18:45:00,76.3,69.7,29.97,NNW,339,0.0,0.0,80,0.00,,---,0.04,VWS V14.01,2013-07-20 22:45:00,
2013-07-20 18:50:00,76.3,69.7,29.97,NNW,339,0.0,0.0,80,0.00,,---,0.04,VWS V14.01,2013-07-20 22:50:00,
2013-07-20 18:55:00,76.3,69.7,29.97,NNW,339,0.0,0.0,80,0.00,,---,0.04,VWS V14.01,2013-07-20 22:55:00,
2013-07-20 19:00:00,76.1,69.8,29.97,NNW,339,0.0,0.0,81,0.00,,---,0.04,VWS V14.01,2013-07-20 23:00:00,
2013-07-20 19:05:00,76.1,69.8,29.97,NNW,339,0.0,0.0,81,0.00,,---,0.04,VWS V14.01,2013-07-20 23:05:00,
2013-07-20 19:10:00,76.1,69.8,29.97,NNW,339,0.0,0.0,81,0.00,,---,0.04,VWS V14.01,2013-07-20 23:10:00,
2013-07-20 19:15:00,76.1,69.8,29.97,NNW,339,0.0,0.0,81,0.00,,---,0.04,VWS V14.01,2013-07-20 23:15:00,
2013-07-20 19:20:00,76.1,69.8,29.97,NNW,339,0.0,0.0,81,0.00,,---,0.04,VWS V14.01,2013-07-20 23:20:00,
2013-07-20 19:25:00,76.1,69.8,29.97,NNW,339,0.0,0.0,81,0.00,,---,0.04,VWS V14.01,2013-07-20 23:25:00,
2013-07-20 19:31:00,76.1,69.8,29.97,NNW,339,0.0,0.0,81,0.00,,---,0.04,VWS V14.01,2013-07-20 23:31:00,
2013-07-20 19:36:00,75.9,69.7,29.97,NNW,339,0.0,0.0,81,0.00,,---,0.04,VWS V14.01,2013-07-20 23:36:00,
2013-07-20 19:41:00,75.7,69.5,30.00,NNW,339,0.0,0.0,81,0.00,,---,0.04,VWS V14.01,2013-07-20 23:41:00,
2013-07-20 19:46:00,75.7,69.5,30.00,NNW,339,0.0,0.0,81,0.00,,---,0.04,VWS V14.01,2013-07-20 23:46:00,
2013-07-20 19:51:00,75.6,69.0,30.00,NNW,339,0.0,0.0,80,0.00,,---,0.04,VWS V14.01,2013-07-20 23:51:00,
2013-07-20 19:56:00,75.6,69.0,30.00,NNW,339,0.0,0.0,80,0.00,,---,0.04,VWS V14.01,2013-07-20 23:56:00,
2013-07-20 20:01:00,75.4,69.2,30.00,NNW,339,0.0,0.0,81,0.00,,---,0.04,VWS V14.01,2013-07-21 00:01:00,
2013-07-20 20:06:00,75.4,69.2,30.00,NNW,339,0.0,0.0,81,0.00,,---,0.04,VWS V14.01,2013-07-21 00:06:00,
2013-07-20 20:11:00,75.2,68.6,30.00,NNW,339,0.0,0.0,80,0.00,,---,0.04,VWS V14.01,2013-07-21 00:11:00,
2013-07-20 20:16:00,75.0,68.8,30.00,NNW,339,0.0,0.0,81,0.00,,---,0.04,VWS V14.01,2013-07-21 00:16:00,
2013-07-20 20:21:00,75.0,68.8,30.00,NNW,339,0.0,0.0,81,0.00,,---,0.04,VWS V14.01,2013-07-21 00:21:00,
2013-07-20 20:26:00,74.8,68.6,30.00,NNW,339,0.0,0.0,81,0.00,,---,0.04,VWS V14.01,2013-07-21 00:26:00,
2013-07-20 20:31:00,74.8,68.6,30.00,NNW,339,0.0,0.0,81,0.00,,---,0.04,VWS V14.01,2013-07-21 00:31:00,
2013-07-20 20:36:00,74.7,68.4,30.00,NNW,339,0.0,0.0,81,0.00,,---,0.04,VWS V14.01,2013-07-21 00:36:00,
2013-07-20 20:41:00,74.5,68.6,30.00,NNW,339,0.0,0.0,82,0.00,,---,0.04,VWS V14.01,2013-07-21 00:41:00,
2013-07-20 20:46:00,74.5,68.6,30.00,NNW,339,0.0,0.0,82,0.00,,---,0.04,VWS V14.01,2013-07-21 00:46:00,
2013-07-20 20:51:00,74.3,68.4,30.00,NNW,339,0.0,0.0,82,0.00,,---,0.04,VWS V14.01,2013-07-21 00:51:00,
2013-07-20 20:57:00,74.1,68.3,30.00,NNW,339,0.0,0.0,82,0.00,,---,0.04,VWS V14.01,2013-07-21 00:57:00,
2013-07-20 21:02:00,74.1,68.3,30.00,NNW,339,0.0,0.0,82,0.00,,---,0.04,VWS V14.01,2013-07-21 01:02:00,
2013-07-20 21:07:00,73.9,68.5,30.00,NNW,339,0.0,0.0,83,0.00,,---,0.04,VWS V14.01,2013-07-21 01:07:00,
2013-07-20 21:12:00,73.8,68.3,30.00,NNW,339,0.0,0.0,83,0.00,,---,0.04,VWS V14.01,2013-07-21 01:12:00,
2013-07-20 21:17:00,73.6,68.1,30.00,NNW,339,0.0,0.0,83,0.00,,---,0.04,VWS V14.01,2013-07-21 01:17:00,
2013-07-20 21:22:00,73.4,68.3,30.00,NNW,339,0.0,0.0,84,0.00,,---,0.04,VWS V14.01,2013-07-21 01:22:00,
2013-07-20 21:27:00,73.4,68.3,30.00,NNW,339,0.0,0.0,84,0.00,,---,0.04,VWS V14.01,2013-07-21 01:27:00,
2013-07-20 21:32:00,73.4,68.3,30.00,NNW,339,0.0,0.0,84,0.00,,---,0.04,VWS V14.01,2013-07-21 01:32:00,
2013-07-20 21:37:00,73.2,68.4,30.00,NNW,339,0.0,0.0,85,0.00,,---,0.04,VWS V14.01,2013-07-21 01:37:00,
2013-07-20 21:42:00,73.2,68.4,30.00,NNW,339,0.0,0.0,85,0.00,,---,0.04,VWS V14.01,2013-07-21 01:42:00,
2013-07-20 21:47:00,73.2,68.8,30.00,NNW,339,0.0,0.0,86,0.00,,---,0.04,VWS V14.01,2013-07-21 01:47:00,
2013-07-20 21:52:00,73.2,68.8,30.00,NNW,339,0.0,0.0,86,0.00,,---,0.04,VWS V14.01,2013-07-21 01:52:00,
2013-07-20 21:57:00,73.2,68.8,30.00,NNW,339,0.0,0.0,86,0.00,,---,0.04,VWS V14.01,2013-07-21 01:57:00,
2013-07-20 22:03:00,73.2,68.8,30.00,NNW,339,0.0,0.0,86,0.00,,---,0.04,VWS V14.01,2013-07-21 02:03:00,
2013-07-20 22:08:00,73.2,69.1,30.00,NNW,339,0.0,0.0,87,0.00,,---,0.04,VWS V14.01,2013-07-21 02:08:00,
2013-07-20 22:13:00,73.2,69.1,30.00,NNW,339,0.0,0.0,87,0.00,,---,0.04,VWS V14.01,2013-07-21 02:13:00,
2013-07-20 22:18:00,73.2,69.1,30.00,NNW,339,0.0,0.0,87,0.00,,---,0.04,VWS V14.01,2013-07-21 02:18:00,
2013-07-20 22:23:00,73.2,69.1,30.00,NNW,339,0.0,0.0,87,0.00,,---,0.04,VWS V14.01,2013-07-21 02:23:00,
2013-07-20 22:28:00,73.0,68.9,30.00,NNW,339,0.0,0.0,87,0.00,,---,0.04,VWS V14.01,2013-07-21 02:28:00,
2013-07-20 22:33:00,73.0,68.9,30.00,NNW,339,0.0,0.0,87,0.00,,---,0.04,VWS V14.01,2013-07-21 02:33:00,
2013-07-20 22:38:00,72.9,69.1,30.00,NNW,339,0.0,0.0,88,0.00,,---,0.04,VWS V14.01,2013-07-21 02:38:00,
2013-07-20 22:43:00,72.9,69.1,30.00,NNW,339,0.0,0.0,88,0.00,,---,0.04,VWS V14.01,2013-07-21 02:43:00,
2013-07-20 22:48:00,72.9,69.1,30.00,NNW,339,0.0,0.0,88,0.00,,---,0.04,VWS V14.01,2013-07-21 02:48:00,
2013-07-20 22:53:00,72.9,69.1,30.00,NNW,339,0.0,0.0,88,0.00,,---,0.04,VWS V14.01,2013-07-21 02:53:00,
2013-07-20 22:58:00,72.7,68.9,30.03,NNW,339,0.0,0.0,88,0.00,,---,0.04,VWS V14.01,2013-07-21 02:58:00,
2013-07-20 23:03:00,72.7,68.9,30.03,NNW,339,0.0,0.0,88,0.00,,---,0.04,VWS V14.01,2013-07-21 03:03:00,
2013-07-20 23:08:00,72.7,69.3,30.03,NNW,339,0.0,0.0,89,0.00,,---,0.04,VWS V14.01,2013-07-21 03:08:00,
2013-07-20 23:14:00,72.7,69.3,30.00,NNW,339,0.0,0.0,89,0.00,,---,0.04,VWS V14.01,2013-07-21 03:14:00,
2013-07-20 23:19:00,72.7,69.3,30.00,NNW,339,0.0,0.0,89,0.00,,---,0.04,VWS V14.01,2013-07-21 03:19:00,
2013-07-20 23:24:00,72.7,69.3,30.00,NNW,339,0.0,0.0,89,0.00,,---,0.04,VWS V14.01,2013-07-21 03:24:00,
2013-07-20 23:29:00,72.7,69.3,30.00,NNW,339,0.0,0.0,89,0.00,,---,0.04,VWS V14.01,2013-07-21 03:29:00,
2013-07-20 23:34:00,72.7,69.3,30.00,NNW,339,0.0,0.0,89,0.00,,---,0.04,VWS V14.01,2013-07-21 03:34:00,
2013-07-20 23:39:00,72.5,69.1,30.00,NNW,339,0.0,0.0,89,0.00,,---,0.04,VWS V14.01,2013-07-21 03:39:00,
2013-07-20 23:44:00,72.5,69.4,30.00,NNW,339,0.0,0.0,90,0.00,,---,0.04,VWS V14.01,2013-07-21 03:44:00,
2013-07-20 23:49:00,72.5,69.4,30.00,NNW,339,0.0,0.0,90,0.00,,---,0.04,VWS V14.01,2013-07-21 03:49:00,
2013-07-20 23:54:00,72.5,69.4,30.00,NNW,339,0.0,0.0,90,0.00,,---,0.04,VWS V14.01,2013-07-21 03:54:00,
2013-07-20 23:59:00,72.5,69.4,30.00,NNW,339,0.0,0.0,90,0.00,,---,0.04,VWS V14.01,2013-07-21 03:59:00,